Date String (YYYY-MM-DD hh:mm:ss) UTC,Instrument flags,Ambient pressure (hPa),Sample flow (lpm),Bypass flow (lpm),Sample temperature (°C),Ambient temperature (°C),ASC tube jacket temperature (°C),LED temperature (°C),Box temperature (°C),Sample RH (%),Span deviation,Mass concentration (μg/m³),Mass concentration (μg/m³),Mass concentration (μg/m³)
DateTimeUTC,F1_M11,P_M11,Q1_M11,Q2_M11,T1_M11,T2_M11,T3_M11,T4_M11,T5_M11,U1_M11,ZSPAN_M11,X0_M11,X2_M11,X1_M11
2022-08-29 09:00:00,,0826.2,5.00,0.00,30.0,27.6,00.0,38.8,31.6,21.0,0000.0,0012.28,0005.19,0004.32
2022-08-29 09:01:00,,0826.3,5.00,0.00,29.9,27.9,00.0,38.8,31.6,21.1,0000.0,0011.88,0005.15,0004.30
2022-08-29 09:02:00,,0826.3,4.99,0.00,29.9,28.1,00.0,38.8,31.7,21.1,0000.0,0011.81,0005.08,0004.27
2022-08-29 09:03:00,,0826.3,5.01,0.00,29.9,28.2,00.0,38.8,31.7,21.1,0000.0,0011.75,0005.01,0004.26
2022-08-29 09:04:00,,0826.3,4.99,0.00,29.9,28.4,00.0,38.7,31.7,21.1,0000.0,0011.83,0004.95,0004.23
2022-08-29 09:05:00,,0826.3,5.01,0.00,29.9,28.5,00.0,38.7,31.7,21.1,0000.0,0011.35,0004.95,0004.22
2022-08-29 09:06:00,,0826.3,5.00,0.00,29.9,28.6,00.0,38.8,31.8,21.0,0000.0,0010.68,0004.95,0004.22
2022-08-29 09:07:00,,0826.4,5.00,0.00,29.9,28.6,00.0,38.8,31.7,21.0,0000.0,0011.05,0004.94,0004.23
2022-08-29 09:08:00,,0826.4,5.00,0.00,30.0,28.7,00.0,38.8,31.7,20.9,0000.0,0011.14,0004.94,0004.23
2022-08-29 09:09:00,,0826.4,5.00,0.00,30.0,28.7,00.0,38.8,31.8,20.8,0000.0,0011.18,0004.92,0004.24
2022-08-29 09:10:00,,0826.3,5.00,0.00,30.0,28.8,00.0,38.8,31.8,20.7,0000.0,0011.51,0004.92,0004.25
2022-08-29 09:11:00,,0826.3,5.00,0.00,30.0,28.8,00.0,38.8,31.9,20.6,0000.0,0011.55,0004.98,0004.26
2022-08-29 09:12:00,,0826.4,5.00,0.00,30.0,28.9,00.0,38.8,31.9,20.6,0000.0,0012.49,0005.03,0004.29
2022-08-29 09:13:00,,0826.4,5.00,0.00,30.0,28.9,00.0,38.8,31.9,20.5,0000.0,0012.38,0005.08,0004.31
2022-08-29 09:14:00,,0826.4,5.00,0.00,30.1,28.9,00.0,38.8,31.9,20.2,0000.0,0012.57,0005.17,0004.34
2022-08-29 09:15:00,,0826.5,5.00,0.00,30.1,29.0,00.0,38.8,31.9,20.3,0000.0,0013.04,0005.25,0004.38
2022-08-29 09:16:00,,0826.5,5.00,0.00,30.1,29.0,00.0,38.8,32.0,20.1,0000.0,0012.98,0005.31,0004.42
2022-08-29 09:17:00,,0826.4,5.00,0.00,30.1,29.0,00.0,38.9,32.0,20.2,0000.0,0012.78,0005.30,0004.44
2022-08-29 09:18:00,,0826.4,5.00,0.00,30.1,29.0,00.0,38.9,32.0,20.1,0000.0,0012.48,0005.37,0004.48
2022-08-29 09:19:00,,0826.4,5.01,0.00,30.2,29.1,00.0,38.9,32.0,20.1,0000.0,0012.38,0005.42,0004.52
2022-08-29 09:20:00,,0826.5,5.00,0.00,30.2,29.1,00.0,38.9,32.0,20.0,0000.0,0013.10,0005.48,0004.54
2022-08-29 09:21:00,,0826.4,5.00,0.00,30.2,29.1,00.0,38.9,32.0,19.9,0000.0,0013.15,0005.48,0004.57
2022-08-29 09:22:00,,0826.5,5.01,0.00,30.2,29.1,00.0,38.9,32.1,19.8,0000.0,0013.87,0005.47,0004.60
2022-08-29 09:23:00,,0826.5,5.00,0.00,30.2,29.1,00.0,39.0,32.1,19.8,0000.0,0013.34,0005.45,0004.62
2022-08-29 09:24:00,,0826.5,5.00,0.00,30.2,29.2,00.0,39.0,32.1,19.8,0000.0,0014.71,0005.46,0004.64
2022-08-29 09:25:00,,0826.5,5.00,0.00,30.3,29.2,00.0,39.0,32.1,19.8,0000.0,0015.04,0005.44,0004.64
2022-08-29 09:26:00,,0826.5,5.00,0.00,30.3,29.2,00.0,39.0,32.1,19.6,0000.0,0014.43,0005.39,0004.65
2022-08-29 09:27:00,,0826.5,4.99,0.00,30.3,29.2,00.0,39.0,32.1,19.2,0000.0,0014.63,0005.41,0004.67
2022-08-29 09:28:00,,0826.5,4.99,0.00,30.3,29.2,00.0,39.0,32.1,19.3,0000.0,0014.87,0005.49,0004.70
2022-08-29 09:29:00,,0826.5,5.00,0.00,30.3,28.6,00.0,39.0,32.1,19.1,0000.0,0014.87,0005.50,0004.71
2022-08-29 09:30:00,,0826.5,4.99,0.00,30.3,27.2,00.0,39.0,31.9,19.3,0000.0,0015.16,0005.48,0004.72
2022-08-29 09:31:00,,0826.5,5.01,0.00,30.2,26.9,00.0,38.9,31.9,19.3,0000.0,0015.26,0005.50,0004.74
2022-08-29 09:32:00,,0826.5,4.99,0.00,30.1,27.0,00.0,38.9,31.6,19.4,0000.0,0015.58,0005.56,0004.77
2022-08-29 09:33:00,,0826.5,4.99,0.00,30.0,27.3,00.0,38.9,31.6,19.5,0000.0,0015.35,0005.62,0004.78
2022-08-29 09:34:00,,0826.5,5.00,0.00,30.0,27.7,00.0,38.8,31.6,19.6,0000.0,0015.46,0005.66,0004.79
2022-08-29 09:35:00,,0826.5,5.00,0.00,30.0,27.9,00.0,38.8,31.6,19.6,0000.0,0014.91,0005.69,0004.79
2022-08-29 09:36:00,,0826.5,5.00,0.00,29.9,28.1,00.0,38.8,31.7,19.7,0000.0,0013.83,0005.66,0004.81
2022-08-29 09:37:00,,0826.5,4.99,0.00,29.9,28.2,00.0,38.8,31.7,19.7,0000.0,0013.68,0005.67,0004.82
2022-08-29 09:38:00,,0826.5,5.01,0.00,29.9,28.4,00.0,38.8,31.7,19.6,0000.0,0013.47,0005.65,0004.80
2022-08-29 09:39:00,,0826.5,5.00,0.00,29.9,28.5,00.0,38.8,31.7,19.5,0000.0,0013.47,0005.58,0004.78
2022-08-29 09:40:00,,0826.5,4.99,0.00,30.0,28.6,00.0,38.8,31.8,19.6,0000.0,0014.32,0005.57,0004.78
2022-08-29 09:41:00,,0826.5,5.00,0.00,30.0,28.7,00.0,38.8,31.7,19.5,0000.0,0014.24,0005.56,0004.77
2022-08-29 09:42:00,,0826.5,5.00,0.00,30.0,28.7,00.0,38.8,31.8,19.5,0000.0,0013.79,0005.55,0004.77
2022-08-29 09:43:00,,0826.6,5.01,0.00,30.0,28.8,00.0,38.8,31.8,19.5,0000.0,0012.99,0005.51,0004.76
2022-08-29 09:44:00,,0826.6,4.99,0.00,30.0,28.8,00.0,38.8,31.9,19.4,0000.0,0012.70,0005.50,0004.75
2022-08-29 09:45:00,,0826.7,5.00,0.00,30.0,28.8,00.0,38.8,31.9,19.4,0000.0,0012.68,0005.48,0004.74
2022-08-29 09:46:00,,0826.7,5.00,0.00,30.0,28.9,00.0,38.8,31.9,19.3,0000.0,0012.91,0005.47,0004.76
2022-08-29 09:47:00,,0826.7,5.00,0.00,30.1,28.9,00.0,38.8,31.9,19.3,0000.0,0012.51,0005.48,0004.76
2022-08-29 09:48:00,,0826.7,5.00,0.00,30.1,29.0,00.0,38.8,31.9,19.2,0000.0,0013.06,0005.50,0004.77
2022-08-29 09:49:00,,0826.7,4.99,0.00,30.1,29.0,00.0,38.9,32.0,19.2,0000.0,0014.52,0005.54,0004.78
2022-08-29 09:50:00,,0826.7,5.00,0.00,30.1,29.0,00.0,38.9,32.0,19.2,0000.0,0015.07,0005.61,0004.79
2022-08-29 09:51:00,,0826.7,5.01,0.00,30.1,29.0,00.0,38.9,32.0,19.2,0000.0,0014.54,0005.67,0004.80
2022-08-29 09:52:00,,0826.7,5.00,0.00,30.2,29.1,00.0,38.9,32.0,19.2,0000.0,0015.13,0005.69,0004.81
2022-08-29 09:53:00,,0826.8,5.01,0.00,30.2,29.1,00.0,38.9,32.0,19.2,0000.0,0015.67,0005.68,0004.82
2022-08-29 09:54:00,,0826.8,5.00,0.00,30.2,29.1,00.0,38.9,32.0,19.1,0000.0,0016.82,0005.71,0004.83
2022-08-29 09:55:00,,0826.8,5.00,0.00,30.2,29.1,00.0,38.9,32.1,19.1,0000.0,0017.11,0005.67,0004.83
2022-08-29 09:56:00,,0826.8,5.00,0.00,30.2,29.2,00.0,39.0,32.1,19.1,0000.0,0016.59,0005.69,0004.83
2022-08-29 09:57:00,,0826.8,5.00,0.00,30.2,29.2,00.0,39.0,32.1,19.1,0000.0,0016.02,0005.69,0004.81
2022-08-29 09:58:00,,0826.8,5.00,0.00,30.3,29.2,00.0,39.0,32.1,19.0,0000.0,0016.43,0005.70,0004.81
2022-08-29 09:59:00,,0826.8,5.00,0.00,30.3,29.2,00.0,39.0,32.1,19.0,0000.0,0016.72,0005.75,0004.81
